Погода в Усть-Щугере

Россия / Республика Коми     64°16′01″N   57°37′06″E
темп.,
°C
ветер,
м/с
пор.,
м/с
влажн.,
%
обл.,
%
осадки,
мм/ч
давл.,
гПа
погр.,
м
28 июля, ср
ср2800:00+6сз2796100 1.9 1004848
03:00+7ссз61295100 10.5 10041269
06:00+6сз61396100 4.1 10041263
09:00+6ссз51197100 7.5 10051246
12:00+6сз5995100 2.9 1006986
15:00+7сз2894100 4.0 1007683
18:00+8ссз2592100 0.2 1006476
21:00+6ссз1296100 0.3 100662
29 июля, чт
чт2900:00+6ссз1297100 0.1 100584
03:00+6сз1296100 0.1 100571
06:00+7ссз2493100 0.0 1005283
09:00+8с269398 0.1 1006480
12:00+10с3476100 0.1 1006816
15:00+12ссз346284 0.1 10051223
18:00+11ссз246798 0.1 1005311
21:00+7ссз229180 0.1 100526
30 июля, пт
пт3000:00+6ссз2392100 0.0 100586
03:00+6с129467 0.0 100569
06:00+10с23735 0.0 1004418
09:00+14с335259 0.0 10031491
12:00+14с2351100 0.1 10031202
15:00+14с1354100 0.1 1003915
18:00+12ссз1165100 0.0 100321
21:00+11сз116695 0.0 100410
31 июля, сб
сб3100:00+7зюз117944 0.0 100410
03:00+8юз117751 0.0 100410
06:00+12ю126052 0.0 1004320
09:00+13ю2461100 0.0 1003309
12:00+15ю3656100 0.0 1002614
15:00+12ююв2787100 0.3 1002252
18:00+11вюв41196100 3.4 999385
21:00+12юв41098100 8.6 997486
1 августа, вс
вс100:00+12юв2899100 9.8 995355
03:00+12ю2699100 15.4 995315
06:00+13зюз2899100 2.8 996373
09:00+15з379278 3.0 997672
12:00+15з3985100 0.1 999923
15:00+15сз377984 0.2 1000817
18:00+15с127964 0.0 1001151
21:00+13ссв239391 0.1 100275